NOAA 16 DEB, 41716

Orbit data source: Space-Track

NOAA 16 DEB, 41716 is space debris in SSO originally from a launch on Thu, 21 Sep 2000 UTC launched from the Air Force Western Test Range (AFWTR). Debris objects in space refer to the collection of defunct objects orbiting the Earth. Examples of debris include non-operational satellites, rocket bodies, and fragments generated from explosions, collisions, or faulty payload assembly.

Loading next visibility...
Identifier
41716, 2000-055PW
Orbit
SSO
Country
Flag of USUS
Related business
Manufacturer
Unknown
Mission
Spacecraft
Bus & Motor
Unknown
Mass
Unknown
Launch date (UTC)
2000-09-21 (25 years ago)
Launch vehicle
Unknown
Launch site
Air Force Western Test Range (AFWTR)
Object type
Payload
Rocket body
Debris
Shape & HBR
Unknown shape, 0.1 m
Radar Cross Section
Small (<0.1 m²)

Expand to show TLE details & history
Last TLE update: 1 day ago

TLE from 1 day ago
0 NOAA 16 DEB
1 41716U 00055PW  26037.40732176  .00004543  00000-0  18593-2 0  9991
2 41716  98.6406 106.5401 0006432 185.3788 174.7325 14.27678725507680
Epoch: 2026-02-06T09:46Z
TLE epoch observation values (Epoch: 2026-02-06T09:46:32.600Z)
Latitude
0.00001°
Longitude
-176.64137°
Altitude
807.026 km
Speed
7.447 km/s
True Right ascension
07h 06m 09s
True Declination
0° 00' 00"
Sunlit
Object was in full shadow at epoch
Visualization orbit readout
Latitude
Unknown
Longitude
Unknown
Altitude
Unknown
Speed
Unknown
Apparent Right ascension
Unknown
Apparent Declination
Unknown
Sunlit
N/A
Visualization observer readout
Local Sidereal Time
19:14:19
Azimuth
Unknown
Elevation
Unknown
Doppler factor
Unknown
Orbital elements
Apogee altitude
801.26 km
Perigee altitude
792.031 km
Semi-major axis
7,174.782 km
Eccentricity
0.00064
Inclination
98.6406°
RAAN
106.5401°
Arg. of periapsis
185.3788°
True anomaly
174.73926°
Mean anomaly
174.7325°
Eccentric anomaly
174.73588°
Mean motion
3.57133 °/min
Orbital period
100.8 mins
BSTAR
0.0018593
Loading maneuver chart data...
Computing Atmospheric mass density...
Loading historical data...
Loading historical data...
Loading historical data...
Loading historical data...
Loading historical data...
Loading historical data...
Loading historical data...

Documentation

Showing up to 5 results
|